Location: Unspecified
(0.0000°N, 0.0000°E)
Time: 17:03:26
(UTC+00:00)

Vanguard 2 - All Passes

Search period start: 18 June 2019 00:00
Search period end: 28 June 2019 00:00
Orbit: 553 x 2939 km, 32.9° (Epoch: 18 June)

Date Brightness Start Highest point End Pass type
(mag) Time Alt. Az. Time Alt. Az. Time Alt. Az.
18 Jun - 04:29:25 10° SSW 04:33:06 32° SE 04:36:48 10° E visible
18 Jun - 06:38:11 10° W 06:41:28 22° NNW 06:45:29 10° NNE daylight
18 Jun - 13:12:33 10° NNW 13:21:41 20° NNE 13:32:41 10° ENE daylight
18 Jun - 15:20:16 10° NW 15:35:38 52° NE 15:52:29 10° ESE daylight
18 Jun - 17:31:16 10° WNW 17:49:04 74° SW 18:04:45 10° SE daylight
18 Jun - 19:48:02 10° W 20:02:01 30° SW 20:12:57 10° SSE visible
19 Jun - 04:47:02 10° SW 04:51:03 70° SE 04:55:11 10° ENE visible
19 Jun - 06:57:53 10° NW 06:59:50 12° NNW 07:01:59 10° N daylight
19 Jun - 13:29:49 10° NNW 13:40:31 26° NNE 13:53:44 10° E daylight
19 Jun - 15:38:01 10° NW 15:53:59 65° NE 16:11:20 10° ESE daylight
19 Jun - 17:49:55 10° WNW 18:07:20 59° SW 18:22:34 10° SE daylight
19 Jun - 20:08:44 10° WSW 20:20:38 23° SSW 20:30:12 10° SSE visible
20 Jun - 02:57:56 10° S 03:00:29 14° SSE 03:02:46 10° ESE visible
20 Jun - 05:05:05 10° WSW 05:09:00 53° NW 05:13:06 10° NE visible
20 Jun - 13:47:09 10° NNW 13:59:06 34° NE 14:14:07 10° E daylight
20 Jun - 15:55:55 10° NW 16:12:15 80° NE 16:29:51 10° ESE daylight
20 Jun - 18:08:58 10° WNW 18:25:41 47° SW 18:40:14 10° SE visible
20 Jun - 20:30:11 10° WSW 20:39:32 17° SSW 20:47:19 10° S visible
21 Jun - 03:14:43 10° SSW 03:18:46 25° SSE 03:22:09 10° E visible
21 Jun - 05:23:39 10° W 05:27:00 25° NNW 05:30:33 10° NNE visible
21 Jun - 11:59:05 10° N 12:04:28 14° NNE 12:10:48 10° NE daylight
21 Jun - 14:04:36 10° NNW 14:17:30 43° NE 14:33:52 10° ESE daylight
21 Jun - 16:14:01 10° WNW 16:30:32 84° SW 16:48:05 10° SE daylight
21 Jun - 18:28:29 10° W 18:44:11 37° SSW 18:57:47 10° SSE visible
21 Jun - 20:52:25 10° SW 20:58:43 13° SSW 21:04:13 10° S visible
22 Jun - 03:32:11 10° SW 03:36:53 49° SSE 03:40:42 10° ENE visible
22 Jun - 05:43:07 10° WNW 05:45:07 13° NNW 05:47:13 10° N daylight
22 Jun - 12:15:40 10° N 12:23:15 19° NNE 12:32:51 10° ENE daylight
22 Jun - 14:22:10 10° NW 14:35:45 55° NE 14:53:07 10° ESE daylight
22 Jun - 16:32:24 10° WNW 16:48:51 68° SW 17:06:04 10° SE daylight
22 Jun - 18:48:35 10° W 19:02:52 29° SSW 19:15:17 10° SSE visible
22 Jun - 21:15:50 10° SSW 21:18:09 10° SSW 21:20:21 10° S visible
23 Jun - 01:42:09 10° SSW 01:45:40 15° SSE 01:48:33 10° ESE night (unlit)
23 Jun - 03:50:07 10° WSW 03:54:52 79° NNW 03:58:47 10° NE visible
23 Jun - 12:32:38 10° NNW 12:41:46 26° NE 12:53:56 10° E daylight
23 Jun - 14:39:53 10° NW 14:53:56 70° NE 15:11:55 10° ESE daylight
23 Jun - 16:51:05 10° WNW 17:07:16 55° SW 17:23:55 10° SE daylight
23 Jun - 19:09:16 10° WSW 19:21:50 23° SSW 19:32:45 10° SSE visible
24 Jun - 01:59:02 10° SSW 02:04:09 24° SSE 02:07:58 10° E night (unlit)
24 Jun - 04:08:30 10° WSW 04:12:45 37° NW 04:16:25 10° NNE visible
24 Jun - 12:49:50 10° NNW 13:00:04 34° NE 13:14:15 10° E daylight
24 Jun - 14:57:48 10° NW 15:12:08 86° NE 15:30:24 10° SE daylight
24 Jun - 17:10:11 10° W 17:25:50 44° SSW 17:41:38 10° SE daylight
24 Jun - 19:30:35 10° WSW 19:41:04 18° SSW 19:50:14 10° SSE visible
25 Jun - 00:08:42 10° S 00:11:38 12° SSE 00:14:11 10° SE night (unlit)
25 Jun - 02:16:29 10° SW 02:22:28 41° SSE 02:26:39 10° E night (unlit)
25 Jun - 04:27:30 10° W 04:30:38 19° NW 04:33:31 10° N visible
25 Jun - 11:03:32 10° NNE 11:06:44 12° NNE 11:10:21 10° NE daylight
25 Jun - 13:07:13 10° NNW 13:18:12 45° NE 13:33:55 10° ESE daylight
25 Jun - 15:15:56 10° WNW 15:30:26 77° SW 15:48:37 10° SE daylight
25 Jun - 17:29:45 10° W 17:44:35 35° SSW 17:59:17 10° SSE daylight
25 Jun - 19:52:19 10° SW 20:00:35 15° SSW 20:07:53 10° SSE visible
26 Jun - 00:25:06 10° SSW 00:30:30 17° SSE 00:34:36 10° ESE night (unlit)
26 Jun - 02:34:19 10° SW 02:40:35 75° SSE 02:44:52 10° ENE visible
26 Jun - 11:19:15 10° N 11:25:14 17° NE 11:32:53 10° ENE daylight
26 Jun - 13:24:45 10° NW 13:36:15 59° NE 13:53:05 10° ESE daylight
26 Jun - 15:34:21 10° WNW 15:48:50 62° SW 16:06:36 10° SE daylight
26 Jun - 17:49:50 10° WSW 18:03:35 28° SSW 18:16:55 10° SSE daylight
26 Jun - 20:14:03 10° SW 20:20:19 13° SSW 20:25:56 10° SSE visible
26 Jun - 22:33:06 10° S 22:36:29 11° S 22:39:28 10° SSE visible
27 Jun - 00:42:14 10° SSW 00:49:10 25° SSE 00:53:58 10° ESE night (unlit)
27 Jun - 02:52:32 10° WSW 02:58:31 58° NW 03:02:42 10° NE visible
27 Jun - 11:35:58 10° NNW 11:43:28 24° NE 11:53:55 10° E daylight
27 Jun - 13:42:29 10° NW 13:54:20 76° NE 14:11:51 10° ESE daylight
27 Jun - 15:53:06 10° WNW 16:07:24 49° SSW 16:24:28 10° SE daylight
27 Jun - 18:10:29 10° WSW 18:22:51 22° SSW 18:34:38 10° SSE visible
27 Jun - 20:34:58 10° SSW 20:40:09 12° S 20:44:49 10° SSE visible
27 Jun - 22:49:52 10° SSW 22:55:44 15° SSE 23:00:26 10° SE night (unlit)
